Tracking 27122 objects as of 24-Mar-2023
HD Live streaming from Space Station
objects crossing your sky now

SL-12 R/B(2)

Track SL-12 R/B(2) now!


NORAD ID: 28256
Int'l Code: 2004-010F
Perigee: 35,712.3 km
Apogee: 35,950.4 km
Inclination: 12.3 °
Period: 1,438.0 minutes
Semi major axis: 42202 km
RCS: 0.003 m2 (small)
Launch date: March 27, 2004
Source: Commonwealth of Independent States (former USSR) (CIS)
Launch site: TYURATAM MISSILE AND SPACE COMPLEX (TTMTR)

Note: This is a ROCKET BODY
Your satellite tracking list
Your tracking list is empty




NASA's NSSDC Master Catalog

Two Line Element Set (TLE):
1 28256U 04010F   23082.59761279 -.00000027  00000-0  00000-0 0  9999
2 28256  12.3246  29.8863 0028212 349.0962 193.3297  1.00137653 68832
Source of the keplerian elements: AFSPC